Weather in Starij Krim

Russia / Republic of Crimea     45°01′44″N   35°05′24″E
temp.,
°C
wind,
m/s
gust,
m/s
humid.,
%
clouds,
%
prec.,
mm/h
press.,
hPa
HPBL,
m
23 january, sat
sat2300:00+4s349239 0.0 102278
03:00+3s449558 0.0 102175
06:00+4s4493100 0.0 102189
09:00+4s459396 0.0 1021116
12:00+8s5117942 0.0 1020580
15:00+8ssw487959 0.0 1019510
18:00+5s338793 0.0 101852
21:00+5s338995 0.0 101849
24 january, sun
sun2400:00+4s348791 0.0 101856
03:00+4s448882 0.0 101769
06:00+4s4590100 0.0 101585
09:00+4s4692100 0.0 1015132
12:00+7s478995 0.0 1014361
15:00+8s348198 0.0 1013232
18:00+5ssw2388100 0.0 101350
21:00+5s3389100 0.0 101451
25 january, mon
mon2500:00+5ssw3489100 0.1 101474
03:00+5ssw338683 0.1 101346
06:00+5s338437 0.0 101345
09:00+6s338369 0.0 101345
12:00+8se3480100 0.0 1012153
15:00+8sse41076100 0.0 1009567
18:00+6s3692100 0.0 1008280
21:00+7s4139497 0.9 1007593
26 january, tue
tue2600:00+6s4139393 2.8 1007521
03:00+7s5128886 2.8 1008540
06:00+7s51494100 0.1 1006666
09:00+7s5139699 2.4 1006863
12:00+8sw7126792 5.6 10091169
15:00+8wsw5105783 5.6 10111088
18:00+5w117373 0.0 101433
21:00+3nnw118086 0.0 101525
27 january, wed
wed2700:00+3n1181100 0.0 101636
03:00+3nne1283100 0.1 101588
06:00+2nnw1284100 0.1 1014125
09:00+2nne2278100 0.1 1015168
12:00+3n3562100 0.0 1014670
15:00+3nne5767100 0.0 1011933
18:00+2nne51081100 0.0 1010940
21:000n61294100 0.7 1008820